Year,Month,Day,Hour,Minute,Value (Times are PST for temperature in C)
2009,08,07,00,00,15.70
2009,08,07,00,01,15.70
2009,08,07,00,02,15.70
2009,08,07,00,03,15.70
2009,08,07,00,04,15.80
2009,08,07,00,05,15.80
2009,08,07,00,06,15.80
2009,08,07,00,07,15.80
2009,08,07,00,08,15.80
2009,08,07,00,09,15.80
2009,08,07,00,10,15.80
2009,08,07,00,11,15.80
2009,08,07,00,12,15.80
2009,08,07,00,13,15.80
2009,08,07,00,14,15.80
2009,08,07,00,15,15.80
2009,08,07,00,16,15.80
2009,08,07,00,17,15.80
2009,08,07,00,18,15.80
2009,08,07,00,19,15.70
2009,08,07,00,20,15.70
2009,08,07,00,21,15.70
2009,08,07,00,22,15.70
2009,08,07,00,23,15.70
2009,08,07,00,24,15.70
2009,08,07,00,25,15.70
2009,08,07,00,26,15.60
2009,08,07,00,27,15.70
2009,08,07,00,28,15.70
2009,08,07,00,29,15.70
2009,08,07,00,30,15.70
2009,08,07,00,31,15.70
2009,08,07,00,32,15.70
2009,08,07,00,33,15.70
2009,08,07,00,34,15.70
2009,08,07,00,35,15.70
2009,08,07,00,36,15.70
2009,08,07,00,37,15.60
2009,08,07,00,38,15.60
2009,08,07,00,39,15.60
2009,08,07,00,40,15.60
2009,08,07,00,41,15.60
2009,08,07,00,42,15.60
2009,08,07,00,43,15.60
2009,08,07,00,44,15.60
2009,08,07,00,45,15.60
2009,08,07,00,46,15.60
2009,08,07,00,47,15.60
2009,08,07,00,48,15.60
2009,08,07,00,49,15.60
2009,08,07,00,50,15.60
2009,08,07,00,51,15.60
2009,08,07,00,52,15.60
2009,08,07,00,53,15.60
2009,08,07,00,54,15.60
2009,08,07,00,55,15.60
2009,08,07,00,56,15.50
2009,08,07,00,57,15.50
2009,08,07,00,58,15.50
2009,08,07,00,59,15.50
2009,08,07,01,00,15.50
2009,08,07,01,01,15.50
2009,08,07,01,02,15.50
2009,08,07,01,03,15.50
2009,08,07,01,04,15.50
2009,08,07,01,05,15.50
2009,08,07,01,06,15.50
2009,08,07,01,07,15.40
2009,08,07,01,08,15.40
2009,08,07,01,09,15.40
2009,08,07,01,10,15.30
2009,08,07,01,11,15.30
2009,08,07,01,12,15.30
2009,08,07,01,13,15.30
2009,08,07,01,14,15.30
2009,08,07,01,15,15.20
2009,08,07,01,16,15.20
2009,08,07,01,17,15.20
2009,08,07,01,18,15.10
2009,08,07,01,19,15.10
2009,08,07,01,20,15.10
2009,08,07,01,21,15.00
2009,08,07,01,22,15.00
2009,08,07,01,23,14.90
2009,08,07,01,24,14.90
2009,08,07,01,25,14.90
2009,08,07,01,26,14.80
2009,08,07,01,27,14.80
2009,08,07,01,28,14.80
2009,08,07,01,29,14.80
2009,08,07,01,30,14.70
2009,08,07,01,31,14.70
2009,08,07,01,32,14.70
2009,08,07,01,33,14.60
2009,08,07,01,34,14.60
2009,08,07,01,35,14.50
2009,08,07,01,36,14.50
2009,08,07,01,37,14.50
2009,08,07,01,38,14.50
2009,08,07,01,39,14.40
2009,08,07,01,40,14.40
2009,08,07,01,41,14.40
2009,08,07,01,42,14.40
2009,08,07,01,43,14.30
2009,08,07,01,44,14.30
2009,08,07,01,45,14.30
2009,08,07,01,46,14.30
2009,08,07,01,47,14.20
2009,08,07,01,48,14.20
2009,08,07,01,49,14.20
2009,08,07,01,50,14.20
2009,08,07,01,51,14.20
2009,08,07,01,52,14.20
2009,08,07,01,53,14.20
2009,08,07,01,54,14.20
2009,08,07,01,55,14.20
2009,08,07,01,56,14.20
2009,08,07,01,57,14.20
2009,08,07,01,58,14.20
2009,08,07,01,59,14.20
2009,08,07,02,00,14.10
2009,08,07,02,01,14.10
2009,08,07,02,02,14.10
2009,08,07,02,03,14.10
2009,08,07,02,04,14.10
2009,08,07,02,05,14.10
2009,08,07,02,06,14.00
2009,08,07,02,07,14.00
2009,08,07,02,08,14.00
2009,08,07,02,09,14.00
2009,08,07,02,10,14.00
2009,08,07,02,11,14.00
2009,08,07,02,12,14.00
2009,08,07,02,13,14.00
2009,08,07,02,14,14.00
2009,08,07,02,15,13.90
2009,08,07,02,16,13.90
2009,08,07,02,17,13.90
2009,08,07,02,18,13.90
2009,08,07,02,19,13.90
2009,08,07,02,20,13.90
2009,08,07,02,21,13.90
2009,08,07,02,22,13.90
2009,08,07,02,23,13.90
2009,08,07,02,24,13.90
2009,08,07,02,25,13.90
2009,08,07,02,26,13.80
2009,08,07,02,27,13.80
2009,08,07,02,28,13.80
2009,08,07,02,29,13.80
2009,08,07,02,30,13.80
2009,08,07,02,31,13.80
2009,08,07,02,32,13.80
2009,08,07,02,33,13.80
2009,08,07,02,34,13.80
2009,08,07,02,35,13.80
2009,08,07,02,36,13.80
2009,08,07,02,37,13.80
2009,08,07,02,38,13.80
2009,08,07,02,39,13.80
2009,08,07,02,40,13.80
2009,08,07,02,41,13.80
2009,08,07,02,42,13.80
2009,08,07,02,43,13.80
2009,08,07,02,44,13.80
2009,08,07,02,45,13.80
2009,08,07,02,46,13.80
2009,08,07,02,47,13.80
2009,08,07,02,48,13.80
2009,08,07,02,49,13.80
2009,08,07,02,50,13.80
2009,08,07,02,51,13.80
2009,08,07,02,52,13.80
2009,08,07,02,53,13.80
2009,08,07,02,54,13.70
2009,08,07,02,55,13.70
2009,08,07,02,56,13.70
2009,08,07,02,57,13.70
2009,08,07,02,58,13.70
2009,08,07,02,59,13.70
2009,08,07,03,00,13.70
2009,08,07,03,01,13.70
2009,08,07,03,02,13.70
2009,08,07,03,03,13.70
2009,08,07,03,04,13.70
2009,08,07,03,05,13.70
2009,08,07,03,06,13.70
2009,08,07,03,07,13.70
2009,08,07,03,08,13.70
2009,08,07,03,09,13.70
2009,08,07,03,10,13.70
2009,08,07,03,11,13.70
2009,08,07,03,12,13.70
2009,08,07,03,13,13.70
2009,08,07,03,14,13.70
2009,08,07,03,15,13.70
2009,08,07,03,16,13.70
2009,08,07,03,17,13.70
2009,08,07,03,18,13.70
2009,08,07,03,19,13.70
2009,08,07,03,20,13.70
2009,08,07,03,21,13.70
2009,08,07,03,22,13.70
2009,08,07,03,23,13.70
2009,08,07,03,24,13.70
2009,08,07,03,25,13.70
2009,08,07,03,26,13.70
2009,08,07,03,27,13.70
2009,08,07,03,28,13.70
2009,08,07,03,29,13.70
2009,08,07,03,30,13.70
2009,08,07,03,31,13.70
2009,08,07,03,32,13.70
2009,08,07,03,33,13.70
2009,08,07,03,34,13.70
2009,08,07,03,35,13.70
2009,08,07,03,36,13.70
2009,08,07,03,37,13.70
2009,08,07,03,38,13.70
2009,08,07,03,39,13.70
2009,08,07,03,40,13.70
2009,08,07,03,41,13.70
2009,08,07,03,42,13.70
2009,08,07,03,43,13.70
2009,08,07,03,44,13.70
2009,08,07,03,45,13.70
2009,08,07,03,46,13.70
2009,08,07,03,47,13.70
2009,08,07,03,48,13.70
2009,08,07,03,49,13.70
2009,08,07,03,50,13.70
2009,08,07,03,51,13.60
2009,08,07,03,52,13.60
2009,08,07,03,53,13.60
2009,08,07,03,54,13.60
2009,08,07,03,55,13.60
2009,08,07,03,56,13.60
2009,08,07,03,57,13.60
2009,08,07,03,58,13.60
2009,08,07,03,59,13.60
2009,08,07,04,00,13.60
2009,08,07,04,01,13.60
2009,08,07,04,02,13.60
2009,08,07,04,03,13.50
2009,08,07,04,04,13.50
2009,08,07,04,05,13.50
2009,08,07,04,06,13.50
2009,08,07,04,07,13.50
2009,08,07,04,08,13.50
2009,08,07,04,09,13.50
2009,08,07,04,10,13.50
2009,08,07,04,11,13.50
2009,08,07,04,12,13.40
2009,08,07,04,13,13.40
2009,08,07,04,14,13.40
2009,08,07,04,15,13.40
2009,08,07,04,16,13.40
2009,08,07,04,17,13.40
2009,08,07,04,18,13.30
2009,08,07,04,19,13.30
2009,08,07,04,20,13.30
2009,08,07,04,21,13.30
2009,08,07,04,22,13.30
2009,08,07,04,23,13.30
2009,08,07,04,24,13.30
2009,08,07,04,25,13.30
2009,08,07,04,26,13.30
2009,08,07,04,27,13.30
2009,08,07,04,28,13.30
2009,08,07,04,29,13.20
2009,08,07,04,30,13.20
2009,08,07,04,31,13.20
2009,08,07,04,32,13.20
2009,08,07,04,33,13.20
2009,08,07,04,34,13.10
2009,08,07,04,35,13.10
2009,08,07,04,36,13.10
2009,08,07,04,37,13.10
2009,08,07,04,38,13.10
2009,08,07,04,39,13.10
2009,08,07,04,40,13.10
2009,08,07,04,41,13.10
2009,08,07,04,42,13.10
2009,08,07,04,43,13.10
2009,08,07,04,44,13.20
2009,08,07,04,45,13.20
2009,08,07,04,46,13.20
2009,08,07,04,47,13.20
2009,08,07,04,48,13.20
2009,08,07,04,49,13.20
2009,08,07,04,50,13.20
2009,08,07,04,51,13.20
2009,08,07,04,52,13.30
2009,08,07,04,53,13.20
2009,08,07,04,54,13.20
2009,08,07,04,55,13.20
2009,08,07,04,56,13.20
2009,08,07,04,57,13.30
2009,08,07,04,58,13.20
2009,08,07,04,59,13.20
2009,08,07,05,00,13.20
2009,08,07,05,01,13.20
2009,08,07,05,02,13.20
2009,08,07,05,03,13.20
2009,08,07,05,04,13.20
2009,08,07,05,05,13.20
2009,08,07,05,06,13.20
2009,08,07,05,07,13.20
2009,08,07,05,08,13.10
2009,08,07,05,09,13.10
2009,08,07,05,10,13.10
2009,08,07,05,11,13.10
2009,08,07,05,12,13.10
2009,08,07,05,13,13.00
2009,08,07,05,14,13.00
2009,08,07,05,15,13.00
2009,08,07,05,16,13.00
2009,08,07,05,17,13.00
2009,08,07,05,18,13.00
2009,08,07,05,19,13.00
2009,08,07,05,20,12.90
2009,08,07,05,21,12.90
2009,08,07,05,22,12.90
2009,08,07,05,23,12.90
2009,08,07,05,24,12.90
2009,08,07,05,25,12.90
2009,08,07,05,26,12.80
2009,08,07,05,27,12.80
2009,08,07,05,28,12.80
2009,08,07,05,29,12.80
2009,08,07,05,30,12.80
2009,08,07,05,31,12.80
2009,08,07,05,32,12.80
2009,08,07,05,33,12.80
2009,08,07,05,34,12.80
2009,08,07,05,35,12.80
2009,08,07,05,36,12.80
2009,08,07,05,37,12.80
2009,08,07,05,38,12.70
2009,08,07,05,39,12.70
2009,08,07,05,40,12.70
2009,08,07,05,41,12.70
2009,08,07,05,42,12.70
2009,08,07,05,43,12.60
2009,08,07,05,44,12.60
2009,08,07,05,45,12.60
2009,08,07,05,46,12.50
2009,08,07,05,47,12.50
2009,08,07,05,48,12.50
2009,08,07,05,49,12.50
2009,08,07,05,50,12.40
2009,08,07,05,51,12.40
2009,08,07,05,52,12.40
2009,08,07,05,53,12.40
2009,08,07,05,54,12.40
2009,08,07,05,55,12.30
2009,08,07,05,56,12.30
2009,08,07,05,57,12.30
2009,08,07,05,58,12.30
2009,08,07,05,59,12.30
2009,08,07,06,00,12.30
2009,08,07,06,01,12.30
2009,08,07,06,02,12.30
2009,08,07,06,03,12.30
2009,08,07,06,04,12.30
2009,08,07,06,05,12.30
2009,08,07,06,06,12.30
2009,08,07,06,07,12.30
2009,08,07,06,08,12.30
2009,08,07,06,09,12.30
2009,08,07,06,10,12.30
2009,08,07,06,11,12.30
2009,08,07,06,12,12.30
2009,08,07,06,13,12.30
2009,08,07,06,14,12.30
2009,08,07,06,15,12.30
2009,08,07,06,16,12.30
2009,08,07,06,17,12.30
2009,08,07,06,18,12.30
2009,08,07,06,19,12.30
2009,08,07,06,20,12.30
2009,08,07,06,21,12.30
2009,08,07,06,22,12.20
2009,08,07,06,23,12.20
2009,08,07,06,24,12.20
2009,08,07,06,25,12.20
2009,08,07,06,26,12.20
2009,08,07,06,27,12.20
2009,08,07,06,28,12.20
2009,08,07,06,29,12.20
2009,08,07,06,30,12.10
2009,08,07,06,31,12.10
2009,08,07,06,32,12.10
2009,08,07,06,33,12.20
2009,08,07,06,34,12.20
2009,08,07,06,35,12.20
2009,08,07,06,36,12.20
2009,08,07,06,37,12.20
2009,08,07,06,38,12.20
2009,08,07,06,39,12.20
2009,08,07,06,40,12.20
2009,08,07,06,41,12.20
2009,08,07,06,42,12.20
2009,08,07,06,43,12.20
2009,08,07,06,44,12.20
2009,08,07,06,45,12.20
2009,08,07,06,46,12.30
2009,08,07,06,47,12.30
2009,08,07,06,48,12.30
2009,08,07,06,49,12.30
2009,08,07,06,50,12.30
2009,08,07,06,51,12.30
2009,08,07,06,52,12.30
2009,08,07,06,53,12.30
2009,08,07,06,54,12.30
2009,08,07,06,55,12.40
2009,08,07,06,56,12.40
2009,08,07,06,57,12.40
2009,08,07,06,58,12.50
2009,08,07,06,59,12.50
2009,08,07,07,00,12.60
2009,08,07,07,01,12.60
2009,08,07,07,02,12.70
2009,08,07,07,03,12.70
2009,08,07,07,04,12.80
2009,08,07,07,05,12.80
2009,08,07,07,06,12.80
2009,08,07,07,07,12.80
2009,08,07,07,08,12.80
2009,08,07,07,09,12.90
2009,08,07,07,10,12.90
2009,08,07,07,11,13.00
2009,08,07,07,12,13.00
2009,08,07,07,13,13.00
2009,08,07,07,14,13.10
2009,08,07,07,15,13.10
2009,08,07,07,16,13.20
2009,08,07,07,17,13.30
2009,08,07,07,18,13.30
2009,08,07,07,19,13.30
2009,08,07,07,20,13.30
2009,08,07,07,21,13.40
2009,08,07,07,22,13.50
2009,08,07,07,23,13.50
2009,08,07,07,24,13.50
2009,08,07,07,25,13.60
2009,08,07,07,26,13.60
2009,08,07,07,27,13.70
2009,08,07,07,28,13.70
2009,08,07,07,29,13.70
2009,08,07,07,30,13.80
2009,08,07,07,31,13.80
2009,08,07,07,32,13.90
2009,08,07,07,33,13.90
2009,08,07,07,34,14.00
2009,08,07,07,35,14.00
2009,08,07,07,36,14.10
2009,08,07,07,37,14.10
2009,08,07,07,38,14.20
2009,08,07,07,39,14.20
2009,08,07,07,40,14.20
2009,08,07,07,41,14.30
2009,08,07,07,42,14.30
2009,08,07,07,43,14.30
2009,08,07,07,44,14.40
2009,08,07,07,45,14.40
2009,08,07,07,46,14.40
2009,08,07,07,47,14.40
2009,08,07,07,48,14.40
2009,08,07,07,49,14.40
2009,08,07,07,50,14.40
2009,08,07,07,51,14.40
2009,08,07,07,52,14.50
2009,08,07,07,53,14.50
2009,08,07,07,54,14.50
2009,08,07,07,55,14.40
2009,08,07,07,56,14.40
2009,08,07,07,57,14.40
2009,08,07,07,58,14.40
2009,08,07,07,59,14.40
2009,08,07,08,00,14.40
2009,08,07,08,01,14.40
2009,08,07,08,02,14.40
2009,08,07,08,03,14.40
2009,08,07,08,04,14.40
2009,08,07,08,05,14.40
2009,08,07,08,06,14.40
2009,08,07,08,07,14.30
2009,08,07,08,08,14.30
2009,08,07,08,09,14.30
2009,08,07,08,10,14.30
2009,08,07,08,11,14.40
2009,08,07,08,12,14.40
2009,08,07,08,13,14.30
2009,08,07,08,14,14.30
2009,08,07,08,15,14.40
2009,08,07,08,16,14.40
2009,08,07,08,17,14.40
2009,08,07,08,18,14.40
2009,08,07,08,19,14.50
2009,08,07,08,20,14.50
2009,08,07,08,21,14.50
2009,08,07,08,22,14.50
2009,08,07,08,23,14.50
2009,08,07,08,24,14.50
2009,08,07,08,25,14.60
2009,08,07,08,26,14.60
2009,08,07,08,27,14.60
2009,08,07,08,28,14.70
2009,08,07,08,29,14.70
2009,08,07,08,30,14.70
2009,08,07,08,31,14.70
2009,08,07,08,32,14.70
2009,08,07,08,33,14.70
2009,08,07,08,34,14.70
2009,08,07,08,35,14.70
2009,08,07,08,36,14.70
2009,08,07,08,37,14.70
2009,08,07,08,38,14.70
2009,08,07,08,39,14.70
2009,08,07,08,40,14.80
2009,08,07,08,41,14.80
2009,08,07,08,42,14.80
2009,08,07,08,43,14.80
2009,08,07,08,44,14.80
2009,08,07,08,45,14.80
2009,08,07,08,46,14.80
2009,08,07,08,47,14.90
2009,08,07,08,48,14.90
2009,08,07,08,49,14.90
2009,08,07,08,50,14.90
2009,08,07,08,51,14.90
2009,08,07,08,52,15.00
2009,08,07,08,53,15.00
2009,08,07,08,54,15.00
2009,08,07,08,55,15.10
2009,08,07,08,56,15.10
2009,08,07,08,57,15.10
2009,08,07,08,58,15.10
2009,08,07,08,59,15.10
2009,08,07,09,00,15.20
2009,08,07,09,01,15.20
2009,08,07,09,02,15.20
2009,08,07,09,03,15.30
2009,08,07,09,04,15.30
2009,08,07,09,05,15.30
2009,08,07,09,06,15.40
2009,08,07,09,07,15.50
2009,08,07,09,08,15.50
2009,08,07,09,09,15.50
2009,08,07,09,10,15.60
2009,08,07,09,11,15.60
2009,08,07,09,12,15.60
2009,08,07,09,13,15.70
2009,08,07,09,14,15.70
2009,08,07,09,15,15.80
2009,08,07,09,16,15.80
2009,08,07,09,17,15.80
2009,08,07,09,18,15.80
2009,08,07,09,19,15.80
2009,08,07,09,20,15.80
2009,08,07,09,21,15.90
2009,08,07,09,22,15.90
2009,08,07,09,23,16.00
2009,08,07,09,24,16.10
2009,08,07,09,25,16.10
2009,08,07,09,26,16.10
2009,08,07,09,27,16.10
2009,08,07,09,28,16.20
2009,08,07,09,29,16.20
2009,08,07,09,30,16.20
2009,08,07,09,31,16.30
2009,08,07,09,32,16.30
2009,08,07,09,33,16.30
2009,08,07,09,34,16.40
2009,08,07,09,35,16.40
2009,08,07,09,36,16.40
2009,08,07,09,37,16.30
2009,08,07,09,38,16.20
2009,08,07,09,39,16.20
2009,08,07,09,40,16.20
2009,08,07,09,41,16.20
2009,08,07,09,42,16.20
2009,08,07,09,43,16.20
2009,08,07,09,44,16.20
2009,08,07,09,45,16.10
2009,08,07,09,46,16.10
2009,08,07,09,47,16.10
2009,08,07,09,48,16.10
2009,08,07,09,49,16.10
2009,08,07,09,50,16.00
2009,08,07,09,51,15.90
2009,08,07,09,52,15.90
2009,08,07,09,53,16.10
2009,08,07,09,54,16.10
2009,08,07,09,55,16.10
2009,08,07,09,56,16.10
2009,08,07,09,57,16.20
2009,08,07,09,58,16.20
2009,08,07,09,59,16.20
2009,08,07,10,00,16.20
2009,08,07,10,01,16.20
2009,08,07,10,02,16.30
2009,08,07,10,03,16.30
2009,08,07,10,04,16.30
2009,08,07,10,05,16.30
2009,08,07,10,06,16.40
2009,08,07,10,07,16.40
2009,08,07,10,08,16.40
2009,08,07,10,09,16.50
2009,08,07,10,10,16.60
2009,08,07,10,11,16.70
2009,08,07,10,12,16.80
2009,08,07,10,13,16.90
2009,08,07,10,14,16.90
2009,08,07,10,15,16.90
2009,08,07,10,16,17.00
2009,08,07,10,17,17.00
2009,08,07,10,18,16.90
2009,08,07,10,19,16.90
2009,08,07,10,20,16.90
2009,08,07,10,21,16.80
2009,08,07,10,22,16.80
2009,08,07,10,23,16.80
2009,08,07,10,24,16.80
2009,08,07,10,25,16.90
2009,08,07,10,26,16.90
2009,08,07,10,27,17.00
2009,08,07,10,28,17.00
2009,08,07,10,29,17.10
2009,08,07,10,30,17.10
2009,08,07,10,31,17.20
2009,08,07,10,32,17.20
2009,08,07,10,33,17.30
2009,08,07,10,34,17.30
2009,08,07,10,35,17.20
2009,08,07,10,36,17.20
2009,08,07,10,37,17.20
2009,08,07,10,38,17.20
2009,08,07,10,39,17.20
2009,08,07,10,40,17.10
2009,08,07,10,41,17.20
2009,08,07,10,42,17.30
2009,08,07,10,43,17.30
2009,08,07,10,44,17.40
2009,08,07,10,45,17.40
2009,08,07,10,46,17.50
2009,08,07,10,47,17.50
2009,08,07,10,48,17.50
2009,08,07,10,49,17.50
2009,08,07,10,50,17.50
2009,08,07,10,51,17.50
2009,08,07,10,52,17.50
2009,08,07,10,53,17.60
2009,08,07,10,54,17.70
2009,08,07,10,55,17.80
2009,08,07,10,56,17.80
2009,08,07,10,57,17.80
2009,08,07,10,58,17.80
2009,08,07,10,59,17.70
2009,08,07,11,00,17.70
2009,08,07,11,01,17.70
2009,08,07,11,02,17.60
2009,08,07,11,03,17.60
2009,08,07,11,04,17.60
2009,08,07,11,05,17.70
2009,08,07,11,06,17.70
2009,08,07,11,07,17.60
2009,08,07,11,08,17.50
2009,08,07,11,09,17.50
2009,08,07,11,10,17.50
2009,08,07,11,11,17.60
2009,08,07,11,12,17.60
2009,08,07,11,13,17.60
2009,08,07,11,14,17.60
2009,08,07,11,15,17.60
2009,08,07,11,16,17.60
2009,08,07,11,17,17.60
2009,08,07,11,18,17.60
2009,08,07,11,19,17.60
2009,08,07,11,20,17.50
2009,08,07,11,21,17.50
2009,08,07,11,22,17.40
2009,08,07,11,23,17.30
2009,08,07,11,24,17.30
2009,08,07,11,25,17.40
2009,08,07,11,26,17.50
2009,08,07,11,27,17.50
2009,08,07,11,28,17.70
2009,08,07,11,29,17.70
2009,08,07,11,30,17.80
2009,08,07,11,31,17.90
2009,08,07,11,32,17.90
2009,08,07,11,33,18.00
2009,08,07,11,34,18.20
2009,08,07,11,35,18.20
2009,08,07,11,36,18.30
2009,08,07,11,37,18.30
2009,08,07,11,38,18.30
2009,08,07,11,39,18.30
2009,08,07,11,40,18.30
2009,08,07,11,41,18.30
2009,08,07,11,42,18.30
2009,08,07,11,43,18.30
2009,08,07,11,44,18.30
2009,08,07,11,45,18.20
2009,08,07,11,46,18.20
2009,08,07,11,47,18.20
2009,08,07,11,48,18.20
2009,08,07,11,49,18.20
2009,08,07,11,50,18.20
2009,08,07,11,51,18.30
2009,08,07,11,52,18.40
2009,08,07,11,53,18.40
2009,08,07,11,54,18.30
2009,08,07,11,55,18.20
2009,08,07,11,56,18.20
2009,08,07,11,57,18.20
2009,08,07,11,58,18.10
2009,08,07,11,59,18.10
2009,08,07,12,00,18.10
2009,08,07,12,01,18.10
2009,08,07,12,02,18.20
2009,08,07,12,03,18.30
2009,08,07,12,04,18.30
2009,08,07,12,05,18.30
2009,08,07,12,06,18.30
2009,08,07,12,07,18.30
2009,08,07,12,08,18.30
2009,08,07,12,09,18.30
2009,08,07,12,10,18.40
2009,08,07,12,11,18.40
2009,08,07,12,12,18.30
2009,08,07,12,13,18.40
2009,08,07,12,14,18.50
2009,08,07,12,15,18.60
2009,08,07,12,16,18.60
2009,08,07,12,17,18.60
2009,08,07,12,18,18.60
2009,08,07,12,19,18.50
2009,08,07,12,20,18.50
2009,08,07,12,21,18.50
2009,08,07,12,22,18.50
2009,08,07,12,23,18.60
2009,08,07,12,24,18.60
2009,08,07,12,25,18.50
2009,08,07,12,26,18.60
2009,08,07,12,27,18.60
2009,08,07,12,28,18.60
2009,08,07,12,29,18.50
2009,08,07,12,30,18.20
2009,08,07,12,31,17.90
2009,08,07,12,32,17.60
2009,08,07,12,33,17.30
2009,08,07,12,34,17.10
2009,08,07,12,35,17.10
2009,08,07,12,36,17.10
2009,08,07,12,37,17.10
2009,08,07,12,38,17.00
2009,08,07,12,39,16.90
2009,08,07,12,40,16.90
2009,08,07,12,41,16.80
2009,08,07,12,42,16.70
2009,08,07,12,43,16.70
2009,08,07,12,44,16.70
2009,08,07,12,45,16.80
2009,08,07,12,46,16.90
2009,08,07,12,47,17.00
2009,08,07,12,48,17.10
2009,08,07,12,49,17.30
2009,08,07,12,50,17.20
2009,08,07,12,51,17.10
2009,08,07,12,52,17.20
2009,08,07,12,53,17.20
2009,08,07,12,54,17.30
2009,08,07,12,55,17.30
2009,08,07,12,56,17.30
2009,08,07,12,57,17.20
2009,08,07,12,58,17.20
2009,08,07,12,59,17.20
2009,08,07,13,00,17.20
2009,08,07,13,01,17.20
2009,08,07,13,02,17.10
2009,08,07,13,03,17.00
2009,08,07,13,04,17.00
2009,08,07,13,05,16.90
2009,08,07,13,06,16.90
2009,08,07,13,07,16.80
2009,08,07,13,08,16.70
2009,08,07,13,09,16.70
2009,08,07,13,10,16.70
2009,08,07,13,11,16.70
2009,08,07,13,12,16.70
2009,08,07,13,13,16.70
2009,08,07,13,14,16.80
2009,08,07,13,15,16.90
2009,08,07,13,16,16.60
2009,08,07,13,17,16.30
2009,08,07,13,18,16.10
2009,08,07,13,19,15.80
2009,08,07,13,20,15.70
2009,08,07,13,21,15.50
2009,08,07,13,22,15.50
2009,08,07,13,23,15.40
2009,08,07,13,24,15.30
2009,08,07,13,25,15.30
2009,08,07,13,26,15.20
2009,08,07,13,27,15.20
2009,08,07,13,28,15.30
2009,08,07,13,29,15.30
2009,08,07,13,30,15.20
2009,08,07,13,31,15.20
2009,08,07,13,32,15.30
2009,08,07,13,33,15.20
2009,08,07,13,34,15.10
2009,08,07,13,35,15.00
2009,08,07,13,36,15.00
2009,08,07,13,37,15.10
2009,08,07,13,38,15.20
2009,08,07,13,39,15.30
2009,08,07,13,40,15.30
2009,08,07,13,41,15.30
2009,08,07,13,42,15.30
2009,08,07,13,43,15.30
2009,08,07,13,44,15.20
2009,08,07,13,45,15.10
2009,08,07,13,46,15.10
2009,08,07,13,47,15.00
2009,08,07,13,48,15.00
2009,08,07,13,49,15.10
2009,08,07,13,50,15.20
2009,08,07,13,51,15.20
2009,08,07,13,52,15.20
2009,08,07,13,53,15.30
2009,08,07,13,54,15.30
2009,08,07,13,55,15.40
2009,08,07,13,56,15.40
2009,08,07,13,57,15.50
2009,08,07,13,58,15.50
2009,08,07,13,59,15.40
2009,08,07,14,00,15.30
2009,08,07,14,01,15.20
2009,08,07,14,02,15.20
2009,08,07,14,03,15.20
2009,08,07,14,04,15.20
2009,08,07,14,05,15.30
2009,08,07,14,06,15.30
2009,08,07,14,07,15.20
2009,08,07,14,08,15.10
2009,08,07,14,09,14.90
2009,08,07,14,10,14.90
2009,08,07,14,11,14.80
2009,08,07,14,12,14.80
2009,08,07,14,13,14.70
2009,08,07,14,14,14.70
2009,08,07,14,15,14.70
2009,08,07,14,16,14.80
2009,08,07,14,17,14.80
2009,08,07,14,18,14.80
2009,08,07,14,19,14.80
2009,08,07,14,20,14.70
2009,08,07,14,21,14.80
2009,08,07,14,22,14.80
2009,08,07,14,23,14.90
2009,08,07,14,24,14.90
2009,08,07,14,25,14.90
2009,08,07,14,26,14.80
2009,08,07,14,27,14.80
2009,08,07,14,28,14.80
2009,08,07,14,29,14.80
2009,08,07,14,30,14.80
2009,08,07,14,31,14.70
2009,08,07,14,32,14.70
2009,08,07,14,33,14.70
2009,08,07,14,34,14.60
2009,08,07,14,35,14.60
2009,08,07,14,36,14.50
2009,08,07,14,37,14.50
2009,08,07,14,38,14.60
2009,08,07,14,39,14.70
2009,08,07,14,40,14.80
2009,08,07,14,41,14.80
2009,08,07,14,42,14.80
2009,08,07,14,43,14.80
2009,08,07,14,44,14.80
2009,08,07,14,45,14.80
2009,08,07,14,46,14.70
2009,08,07,14,47,14.80
2009,08,07,14,48,14.70
2009,08,07,14,49,14.70
2009,08,07,14,50,14.60
2009,08,07,14,51,14.60
2009,08,07,14,52,14.70
2009,08,07,14,53,14.70
2009,08,07,14,54,14.80
2009,08,07,14,55,14.70
2009,08,07,14,56,14.70
2009,08,07,14,57,14.60
2009,08,07,14,58,14.70
2009,08,07,14,59,14.80
2009,08,07,15,00,14.80
2009,08,07,15,01,14.80
2009,08,07,15,02,14.80
2009,08,07,15,03,14.90
2009,08,07,15,04,15.00
2009,08,07,15,05,15.00
2009,08,07,15,06,15.10
2009,08,07,15,07,15.10
2009,08,07,15,08,15.10
2009,08,07,15,09,15.20
2009,08,07,15,10,15.20
2009,08,07,15,11,15.20
2009,08,07,15,12,15.20
2009,08,07,15,13,15.30
2009,08,07,15,14,15.40
2009,08,07,15,15,15.40
2009,08,07,15,16,15.50
2009,08,07,15,17,15.50
2009,08,07,15,18,15.50
2009,08,07,15,19,15.40
2009,08,07,15,20,15.40
2009,08,07,15,21,15.40
2009,08,07,15,22,15.40
2009,08,07,15,23,15.40
2009,08,07,15,24,15.40
2009,08,07,15,25,15.40
2009,08,07,15,26,15.50
2009,08,07,15,27,15.60
2009,08,07,15,28,15.60
2009,08,07,15,29,15.50
2009,08,07,15,30,15.40
2009,08,07,15,31,15.30
2009,08,07,15,32,15.20
2009,08,07,15,33,15.10
2009,08,07,15,34,15.10
2009,08,07,15,35,15.10
2009,08,07,15,36,15.10
2009,08,07,15,37,15.10
2009,08,07,15,38,15.10
2009,08,07,15,39,15.10
2009,08,07,15,40,15.20
2009,08,07,15,41,15.20
2009,08,07,15,42,15.20
2009,08,07,15,43,15.10
2009,08,07,15,44,15.10
2009,08,07,15,45,15.20
2009,08,07,15,46,15.20
2009,08,07,15,47,15.30
2009,08,07,15,48,15.30
2009,08,07,15,49,15.30
2009,08,07,15,50,15.30
2009,08,07,15,51,15.20
2009,08,07,15,52,15.10
2009,08,07,15,53,14.90
2009,08,07,15,54,14.80
2009,08,07,15,55,14.70
2009,08,07,15,56,14.70
2009,08,07,15,57,14.70
2009,08,07,15,58,14.70
2009,08,07,15,59,14.60
2009,08,07,16,00,14.50
2009,08,07,16,01,14.60
2009,08,07,16,02,14.60
2009,08,07,16,03,14.70
2009,08,07,16,04,14.80
2009,08,07,16,05,14.80
2009,08,07,16,06,14.80
2009,08,07,16,07,14.70
2009,08,07,16,08,14.60
2009,08,07,16,09,14.50
2009,08,07,16,10,14.50
2009,08,07,16,11,14.40
2009,08,07,16,12,14.30
2009,08,07,16,13,14.30
2009,08,07,16,14,14.20
2009,08,07,16,15,14.20
2009,08,07,16,16,14.30
2009,08,07,16,17,14.30
2009,08,07,16,18,14.20
2009,08,07,16,19,14.30
2009,08,07,16,20,14.30
2009,08,07,16,21,14.30
2009,08,07,16,22,14.30
2009,08,07,16,23,14.30
2009,08,07,16,24,14.20
2009,08,07,16,25,14.20
2009,08,07,16,26,14.30
2009,08,07,16,27,14.30
2009,08,07,16,28,14.30
2009,08,07,16,29,14.30
2009,08,07,16,30,14.30
2009,08,07,16,31,14.40
2009,08,07,16,32,14.40
2009,08,07,16,33,14.40
2009,08,07,16,34,14.40
2009,08,07,16,35,14.40
2009,08,07,16,36,14.40
2009,08,07,16,37,14.40
2009,08,07,16,38,14.40
2009,08,07,16,39,14.40
2009,08,07,16,40,14.40
2009,08,07,16,41,14.40
2009,08,07,16,42,14.40
2009,08,07,16,43,14.40
2009,08,07,16,44,14.50
2009,08,07,16,45,14.50
2009,08,07,16,46,14.50
2009,08,07,16,47,14.50
2009,08,07,16,48,14.60
2009,08,07,16,49,14.70
2009,08,07,16,50,14.80
2009,08,07,16,51,14.90
2009,08,07,16,52,14.90
2009,08,07,16,53,15.00
2009,08,07,16,54,15.00
2009,08,07,16,55,15.10
2009,08,07,16,56,15.10
2009,08,07,16,57,15.20
2009,08,07,16,58,15.30
2009,08,07,16,59,15.50
2009,08,07,17,00,15.70
2009,08,07,17,01,15.90
2009,08,07,17,02,16.10
2009,08,07,17,03,16.20
2009,08,07,17,04,16.40
2009,08,07,17,05,16.40
2009,08,07,17,06,16.30
2009,08,07,17,07,16.30
2009,08,07,17,08,16.40
2009,08,07,17,09,16.40
2009,08,07,17,10,16.40
2009,08,07,17,11,16.40
2009,08,07,17,12,16.40
2009,08,07,17,13,16.30
2009,08,07,17,14,16.20
2009,08,07,17,15,16.10
2009,08,07,17,16,16.00
2009,08,07,17,17,15.90
2009,08,07,17,18,15.80
2009,08,07,17,19,15.80